Location: Orinda
(37.8771°N, 122.1797°W)
Time: 02:12:54
(UTC+00:00)

Cosmos 2154 Rocket - Pass Details

Date: 21 October 2019
Orbit: 967 x 996 km, 82.9° (Epoch: 18 November)

Event Time Altitude Azimuth Distance (km) Brightness Sun altitude
Rises 12:06:16 0° 173° (S) 3,641 7.0 -27.6°
Reaches altitude 10° 12:08:47 10° 170° (S) 2,697 6.3 -27.1°
Maximum altitude 12:14:49 59° 92° (E) 1,112 4.5 -25.9°
Drops below altitude 10° 12:20:54 10° 15° (NNE) 2,717 6.6 -24.7°
Sets 12:23:27 0° 12° (NNE) 3,670 7.2 -24.2°
